Year,Month,Day,Hour,Minute,Value (Times are PST for temperature in C)
2013,07,16,00,00,22.80
2013,07,16,00,01,22.80
2013,07,16,00,02,22.70
2013,07,16,00,03,22.70
2013,07,16,00,04,22.70
2013,07,16,00,05,22.70
2013,07,16,00,06,22.70
2013,07,16,00,07,22.70
2013,07,16,00,08,22.70
2013,07,16,00,09,22.70
2013,07,16,00,10,22.70
2013,07,16,00,11,22.70
2013,07,16,00,12,22.70
2013,07,16,00,13,22.70
2013,07,16,00,14,22.70
2013,07,16,00,15,22.70
2013,07,16,00,16,22.70
2013,07,16,00,17,22.80
2013,07,16,00,18,22.70
2013,07,16,00,19,22.70
2013,07,16,00,20,22.70
2013,07,16,00,21,22.70
2013,07,16,00,22,22.70
2013,07,16,00,23,22.70
2013,07,16,00,24,22.70
2013,07,16,00,25,22.70
2013,07,16,00,26,22.70
2013,07,16,00,27,22.70
2013,07,16,00,28,22.70
2013,07,16,00,29,22.70
2013,07,16,00,30,22.70
2013,07,16,00,31,22.70
2013,07,16,00,32,22.70
2013,07,16,00,33,22.70
2013,07,16,00,34,22.70
2013,07,16,00,35,22.70
2013,07,16,00,36,22.70
2013,07,16,00,37,22.70
2013,07,16,00,38,22.70
2013,07,16,00,39,22.70
2013,07,16,00,40,22.70
2013,07,16,00,41,22.70
2013,07,16,00,42,22.70
2013,07,16,00,43,22.70
2013,07,16,00,44,22.70
2013,07,16,00,45,22.70
2013,07,16,00,46,22.70
2013,07,16,00,47,22.70
2013,07,16,00,48,22.70
2013,07,16,00,49,22.70
2013,07,16,00,50,22.70
2013,07,16,00,51,22.70
2013,07,16,00,52,22.70
2013,07,16,00,53,22.70
2013,07,16,00,54,22.60
2013,07,16,00,55,22.60
2013,07,16,00,56,22.60
2013,07,16,00,57,22.60
2013,07,16,00,58,22.50
2013,07,16,00,59,22.50
2013,07,16,01,00,22.50
2013,07,16,01,01,22.50
2013,07,16,01,02,22.50
2013,07,16,01,03,22.60
2013,07,16,01,04,22.60
2013,07,16,01,05,22.60
2013,07,16,01,06,22.60
2013,07,16,01,07,22.60
2013,07,16,01,08,22.70
2013,07,16,01,09,22.70
2013,07,16,01,10,22.70
2013,07,16,01,11,22.70
2013,07,16,01,12,22.60
2013,07,16,01,13,22.60
2013,07,16,01,14,22.60
2013,07,16,01,15,22.60
2013,07,16,01,16,22.60
2013,07,16,01,17,22.60
2013,07,16,01,18,22.60
2013,07,16,01,19,22.50
2013,07,16,01,20,22.50
2013,07,16,01,21,22.50
2013,07,16,01,22,22.50
2013,07,16,01,23,22.40
2013,07,16,01,24,22.40
2013,07,16,01,25,22.40
2013,07,16,01,26,22.40
2013,07,16,01,27,22.30
2013,07,16,01,28,22.30
2013,07,16,01,29,22.30
2013,07,16,01,30,22.20
2013,07,16,01,31,22.20
2013,07,16,01,32,22.20
2013,07,16,01,33,22.20
2013,07,16,01,34,22.10
2013,07,16,01,35,22.10
2013,07,16,01,36,22.10
2013,07,16,01,37,22.10
2013,07,16,01,38,22.10
2013,07,16,01,39,22.10
2013,07,16,01,40,22.10
2013,07,16,01,41,22.10
2013,07,16,01,42,22.10
2013,07,16,01,43,22.10
2013,07,16,01,44,22.10
2013,07,16,01,45,22.10
2013,07,16,01,46,22.00
2013,07,16,01,47,22.00
2013,07,16,01,48,22.00
2013,07,16,01,49,22.00
2013,07,16,01,50,21.90
2013,07,16,01,51,21.90
2013,07,16,01,52,21.90
2013,07,16,01,53,22.00
2013,07,16,01,54,22.00
2013,07,16,01,55,22.00
2013,07,16,01,56,22.00
2013,07,16,01,57,21.90
2013,07,16,01,58,21.90
2013,07,16,01,59,21.90
2013,07,16,02,00,21.90
2013,07,16,02,01,21.90
2013,07,16,02,02,21.90
2013,07,16,02,03,21.90
2013,07,16,02,04,21.90
2013,07,16,02,05,21.90
2013,07,16,02,06,21.90
2013,07,16,02,07,21.90
2013,07,16,02,08,21.80
2013,07,16,02,09,21.80
2013,07,16,02,10,21.70
2013,07,16,02,11,21.60
2013,07,16,02,12,21.50
2013,07,16,02,13,21.50
2013,07,16,02,14,21.40
2013,07,16,02,15,21.30
2013,07,16,02,16,21.20
2013,07,16,02,17,21.20
2013,07,16,02,18,21.10
2013,07,16,02,19,20.90
2013,07,16,02,20,20.80
2013,07,16,02,21,20.60
2013,07,16,02,22,20.40
2013,07,16,02,23,20.20
2013,07,16,02,24,20.00
2013,07,16,02,25,19.80
2013,07,16,02,26,19.60
2013,07,16,02,27,19.30
2013,07,16,02,28,19.10
2013,07,16,02,29,18.90
2013,07,16,02,30,18.70
2013,07,16,02,31,18.50
2013,07,16,02,32,18.40
2013,07,16,02,33,18.20
2013,07,16,02,34,18.00
2013,07,16,02,35,17.80
2013,07,16,02,36,17.60
2013,07,16,02,37,17.40
2013,07,16,02,38,17.20
2013,07,16,02,39,17.10
2013,07,16,02,40,16.90
2013,07,16,02,41,16.80
2013,07,16,02,42,16.70
2013,07,16,02,43,16.50
2013,07,16,02,44,16.50
2013,07,16,02,45,16.30
2013,07,16,02,46,16.30
2013,07,16,02,47,16.20
2013,07,16,02,48,16.20
2013,07,16,02,49,16.20
2013,07,16,02,50,16.20
2013,07,16,02,51,16.10
2013,07,16,02,52,16.10
2013,07,16,02,53,16.10
2013,07,16,02,54,16.10
2013,07,16,02,55,16.10
2013,07,16,02,56,16.00
2013,07,16,02,57,16.00
2013,07,16,02,58,16.00
2013,07,16,02,59,15.90
2013,07,16,03,00,15.90
2013,07,16,03,01,15.80
2013,07,16,03,02,15.80
2013,07,16,03,03,15.80
2013,07,16,03,04,15.80
2013,07,16,03,05,15.80
2013,07,16,03,06,15.80
2013,07,16,03,07,15.80
2013,07,16,03,08,15.80
2013,07,16,03,09,15.80
2013,07,16,03,10,15.80
2013,07,16,03,11,15.80
2013,07,16,03,12,15.80
2013,07,16,03,13,15.90
2013,07,16,03,14,15.90
2013,07,16,03,15,15.90
2013,07,16,03,16,15.90
2013,07,16,03,17,15.90
2013,07,16,03,18,15.90
2013,07,16,03,19,15.80
2013,07,16,03,20,15.80
2013,07,16,03,21,15.80
2013,07,16,03,22,15.80
2013,07,16,03,23,15.80
2013,07,16,03,24,15.80
2013,07,16,03,25,15.80
2013,07,16,03,26,15.80
2013,07,16,03,27,15.90
2013,07,16,03,28,15.90
2013,07,16,03,29,15.90
2013,07,16,03,30,15.90
2013,07,16,03,31,15.90
2013,07,16,03,32,15.90
2013,07,16,03,33,15.90
2013,07,16,03,34,15.90
2013,07,16,03,35,16.00
2013,07,16,03,36,16.00
2013,07,16,03,37,16.10
2013,07,16,03,38,16.10
2013,07,16,03,39,16.20
2013,07,16,03,40,16.20
2013,07,16,03,41,16.20
2013,07,16,03,42,16.20
2013,07,16,03,43,16.30
2013,07,16,03,44,16.40
2013,07,16,03,45,16.40
2013,07,16,03,46,16.50
2013,07,16,03,47,16.60
2013,07,16,03,48,16.60
2013,07,16,03,49,16.70
2013,07,16,03,50,16.70
2013,07,16,03,51,16.80
2013,07,16,03,52,16.80
2013,07,16,03,53,16.80
2013,07,16,03,54,16.80
2013,07,16,03,55,16.70
2013,07,16,03,56,16.70
2013,07,16,03,57,16.80
2013,07,16,03,58,16.80
2013,07,16,03,59,16.80
2013,07,16,04,00,16.70
2013,07,16,04,01,16.70
2013,07,16,04,02,16.70
2013,07,16,04,03,16.70
2013,07,16,04,04,16.80
2013,07,16,04,05,16.80
2013,07,16,04,06,16.90
2013,07,16,04,07,16.90
2013,07,16,04,08,17.00
2013,07,16,04,09,17.00
2013,07,16,04,10,17.00
2013,07,16,04,11,17.00
2013,07,16,04,12,17.00
2013,07,16,04,13,16.90
2013,07,16,04,14,16.90
2013,07,16,04,15,16.90
2013,07,16,04,16,16.90
2013,07,16,04,17,16.80
2013,07,16,04,18,16.80
2013,07,16,04,19,16.80
2013,07,16,04,20,16.80
2013,07,16,04,21,16.90
2013,07,16,04,22,17.10
2013,07,16,04,23,17.20
2013,07,16,04,24,17.40
2013,07,16,04,25,17.50
2013,07,16,04,26,17.60
2013,07,16,04,27,17.70
2013,07,16,04,28,17.60
2013,07,16,04,29,17.60
2013,07,16,04,30,17.50
2013,07,16,04,31,17.40
2013,07,16,04,32,17.30
2013,07,16,04,33,17.10
2013,07,16,04,34,17.00
2013,07,16,04,35,16.80
2013,07,16,04,36,16.70
2013,07,16,04,37,16.50
2013,07,16,04,38,16.30
2013,07,16,04,39,16.20
2013,07,16,04,40,16.10
2013,07,16,04,41,15.90
2013,07,16,04,42,15.80
2013,07,16,04,43,15.60
2013,07,16,04,44,15.50
2013,07,16,04,45,15.40
2013,07,16,04,46,15.30
2013,07,16,04,47,15.20
2013,07,16,04,48,15.10
2013,07,16,04,49,15.00
2013,07,16,04,50,15.00
2013,07,16,04,51,15.00
2013,07,16,04,52,15.00
2013,07,16,04,53,15.00
2013,07,16,04,54,15.00
2013,07,16,04,55,15.00
2013,07,16,04,56,15.00
2013,07,16,04,57,14.90
2013,07,16,04,58,14.80
2013,07,16,04,59,14.80
2013,07,16,05,00,14.80
2013,07,16,05,01,14.80
2013,07,16,05,02,14.70
2013,07,16,05,03,14.70
2013,07,16,05,04,14.70
2013,07,16,05,05,14.70
2013,07,16,05,06,14.60
2013,07,16,05,07,14.60
2013,07,16,05,08,14.60
2013,07,16,05,09,14.60
2013,07,16,05,10,14.60
2013,07,16,05,11,14.60
2013,07,16,05,12,14.60
2013,07,16,05,13,14.60
2013,07,16,05,14,14.60
2013,07,16,05,15,14.60
2013,07,16,05,16,14.60
2013,07,16,05,17,14.60
2013,07,16,05,18,14.60
2013,07,16,05,19,14.60
2013,07,16,05,20,14.70
2013,07,16,05,21,14.80
2013,07,16,05,22,14.80
2013,07,16,05,23,14.90
2013,07,16,05,24,15.00
2013,07,16,05,25,15.00
2013,07,16,05,26,15.00
2013,07,16,05,27,15.00
2013,07,16,05,28,15.00
2013,07,16,05,29,15.00
2013,07,16,05,30,15.00
2013,07,16,05,31,14.90
2013,07,16,05,32,14.80
2013,07,16,05,33,14.80
2013,07,16,05,34,14.70
2013,07,16,05,35,14.60
2013,07,16,05,36,14.60
2013,07,16,05,37,14.60
2013,07,16,05,38,14.60
2013,07,16,05,39,14.60
2013,07,16,05,40,14.60
2013,07,16,05,41,14.70
2013,07,16,05,42,14.70
2013,07,16,05,43,14.80
2013,07,16,05,44,14.80
2013,07,16,05,45,14.80
2013,07,16,05,46,14.80
2013,07,16,05,47,14.80
2013,07,16,05,48,14.90
2013,07,16,05,49,14.90
2013,07,16,05,50,14.90
2013,07,16,05,51,15.00
2013,07,16,05,52,15.00
2013,07,16,05,53,15.00
2013,07,16,05,54,15.00
2013,07,16,05,55,15.00
2013,07,16,05,56,15.00
2013,07,16,05,57,15.00
2013,07,16,05,58,15.00
2013,07,16,05,59,15.00
2013,07,16,06,00,15.10
2013,07,16,06,01,15.10
2013,07,16,06,02,15.20
2013,07,16,06,03,15.20
2013,07,16,06,04,15.20
2013,07,16,06,05,15.30
2013,07,16,06,06,15.30
2013,07,16,06,07,15.30
2013,07,16,06,08,15.30
2013,07,16,06,09,15.30
2013,07,16,06,10,15.30
2013,07,16,06,11,15.30
2013,07,16,06,12,15.30
2013,07,16,06,13,15.30
2013,07,16,06,14,15.30
2013,07,16,06,15,15.30
2013,07,16,06,16,15.30
2013,07,16,06,17,15.20
2013,07,16,06,18,15.20
2013,07,16,06,19,15.20
2013,07,16,06,20,15.20
2013,07,16,06,21,15.20
2013,07,16,06,22,15.20
2013,07,16,06,23,15.30
2013,07,16,06,24,15.30
2013,07,16,06,25,15.30
2013,07,16,06,26,15.40
2013,07,16,06,27,15.40
2013,07,16,06,28,15.40
2013,07,16,06,29,15.50
2013,07,16,06,30,15.60
2013,07,16,06,31,15.60
2013,07,16,06,32,15.70
2013,07,16,06,33,15.70
2013,07,16,06,34,15.80
2013,07,16,06,35,15.80
2013,07,16,06,36,15.80
2013,07,16,06,37,15.90
2013,07,16,06,38,15.90
2013,07,16,06,39,15.90
2013,07,16,06,40,16.00
2013,07,16,06,41,16.00
2013,07,16,06,42,16.10
2013,07,16,06,43,16.10
2013,07,16,06,44,16.20
2013,07,16,06,45,16.20
2013,07,16,06,46,16.20
2013,07,16,06,47,16.20
2013,07,16,06,48,16.30
2013,07,16,06,49,16.30
2013,07,16,06,50,16.40
2013,07,16,06,51,16.50
2013,07,16,06,52,16.50
2013,07,16,06,53,16.60
2013,07,16,06,54,16.60
2013,07,16,06,55,16.70
2013,07,16,06,56,16.70
2013,07,16,06,57,16.80
2013,07,16,06,58,16.80
2013,07,16,06,59,16.90
2013,07,16,07,00,16.90
2013,07,16,07,01,16.90
2013,07,16,07,02,17.00
2013,07,16,07,03,17.00
2013,07,16,07,04,17.10
2013,07,16,07,05,17.10
2013,07,16,07,06,17.20
2013,07,16,07,07,17.20
2013,07,16,07,08,17.30
2013,07,16,07,09,17.30
2013,07,16,07,10,17.40
2013,07,16,07,11,17.40
2013,07,16,07,12,17.50
2013,07,16,07,13,17.50
2013,07,16,07,14,17.60
2013,07,16,07,15,17.60
2013,07,16,07,16,17.70
2013,07,16,07,17,17.70
2013,07,16,07,18,17.80
2013,07,16,07,19,17.80
2013,07,16,07,20,17.90
2013,07,16,07,21,17.90
2013,07,16,07,22,18.00
2013,07,16,07,23,18.10
2013,07,16,07,24,18.20
2013,07,16,07,25,18.20
2013,07,16,07,26,18.30
2013,07,16,07,27,18.30
2013,07,16,07,28,18.40
2013,07,16,07,29,18.50
2013,07,16,07,30,18.60
2013,07,16,07,31,18.60
2013,07,16,07,32,18.70
2013,07,16,07,33,18.70
2013,07,16,07,34,18.80
2013,07,16,07,35,18.90
2013,07,16,07,36,18.90
2013,07,16,07,37,18.90
2013,07,16,07,38,19.00
2013,07,16,07,39,19.00
2013,07,16,07,40,19.10
2013,07,16,07,41,19.10
2013,07,16,07,42,19.10
2013,07,16,07,43,19.20
2013,07,16,07,44,19.30
2013,07,16,07,45,19.30
2013,07,16,07,46,19.40
2013,07,16,07,47,19.40
2013,07,16,07,48,19.40
2013,07,16,07,49,19.50
2013,07,16,07,50,19.50
2013,07,16,07,51,19.50
2013,07,16,07,52,19.60
2013,07,16,07,53,19.60
2013,07,16,07,54,19.60
2013,07,16,07,55,19.70
2013,07,16,07,56,19.70
2013,07,16,07,57,19.70
2013,07,16,07,58,19.80
2013,07,16,07,59,19.80
2013,07,16,08,00,19.80
2013,07,16,08,01,19.90
2013,07,16,08,02,19.90
2013,07,16,08,03,20.00
2013,07,16,08,04,20.00
2013,07,16,08,05,20.10
2013,07,16,08,06,20.20
2013,07,16,08,07,20.30
2013,07,16,08,08,20.30
2013,07,16,08,09,20.40
2013,07,16,08,10,20.50
2013,07,16,08,11,20.60
2013,07,16,08,12,20.60
2013,07,16,08,13,20.70
2013,07,16,08,14,20.70
2013,07,16,08,15,20.80
2013,07,16,08,16,20.80
2013,07,16,08,17,20.80
2013,07,16,08,18,20.80
2013,07,16,08,19,20.80
2013,07,16,08,20,20.80
2013,07,16,08,21,20.90
2013,07,16,08,22,20.90
2013,07,16,08,23,21.00
2013,07,16,08,24,21.00
2013,07,16,08,25,21.10
2013,07,16,08,26,21.20
2013,07,16,08,27,21.30
2013,07,16,08,28,21.30
2013,07,16,08,29,21.40
2013,07,16,08,30,21.40
2013,07,16,08,31,21.40
2013,07,16,08,32,21.40
2013,07,16,08,33,21.40
2013,07,16,08,34,21.50
2013,07,16,08,35,21.50
2013,07,16,08,36,21.60
2013,07,16,08,37,21.60
2013,07,16,08,38,21.70
2013,07,16,08,39,21.70
2013,07,16,08,40,21.80
2013,07,16,08,41,21.90
2013,07,16,08,42,22.00
2013,07,16,08,43,22.00
2013,07,16,08,44,22.10
2013,07,16,08,45,22.20
2013,07,16,08,46,22.20
2013,07,16,08,47,22.30
2013,07,16,08,48,22.30
2013,07,16,08,49,22.40
2013,07,16,08,50,22.40
2013,07,16,08,51,22.40
2013,07,16,08,52,22.50
2013,07,16,08,53,22.50
2013,07,16,08,54,22.60
2013,07,16,08,55,22.60
2013,07,16,08,56,22.60
2013,07,16,08,57,22.70
2013,07,16,08,58,22.70
2013,07,16,08,59,22.80
2013,07,16,09,00,22.80
2013,07,16,09,01,22.90
2013,07,16,09,02,22.90
2013,07,16,09,03,23.00
2013,07,16,09,04,23.10
2013,07,16,09,05,23.20
2013,07,16,09,06,23.30
2013,07,16,09,07,23.40
2013,07,16,09,08,23.40
2013,07,16,09,09,23.50
2013,07,16,09,10,23.60
2013,07,16,09,11,23.60
2013,07,16,09,12,23.70
2013,07,16,09,13,23.70
2013,07,16,09,14,23.80
2013,07,16,09,15,23.80
2013,07,16,09,16,23.80
2013,07,16,09,17,23.90
2013,07,16,09,18,24.00
2013,07,16,09,19,24.00
2013,07,16,09,20,24.10
2013,07,16,09,21,24.20
2013,07,16,09,22,24.20
2013,07,16,09,23,24.20
2013,07,16,09,24,24.30
2013,07,16,09,25,24.30
2013,07,16,09,26,24.30
2013,07,16,09,27,24.30
2013,07,16,09,28,24.40
2013,07,16,09,29,24.40
2013,07,16,09,30,24.40
2013,07,16,09,31,24.40
2013,07,16,09,32,24.40
2013,07,16,09,33,24.50
2013,07,16,09,34,24.50
2013,07,16,09,35,24.60
2013,07,16,09,36,24.60
2013,07,16,09,37,24.60
2013,07,16,09,38,24.70
2013,07,16,09,39,24.70
2013,07,16,09,40,24.80
2013,07,16,09,41,24.90
2013,07,16,09,42,24.90
2013,07,16,09,43,25.00
2013,07,16,09,44,25.00
2013,07,16,09,45,25.00
2013,07,16,09,46,25.00
2013,07,16,09,47,25.10
2013,07,16,09,48,25.10
2013,07,16,09,49,25.10
2013,07,16,09,50,25.20
2013,07,16,09,51,25.30
2013,07,16,09,52,25.30
2013,07,16,09,53,25.40
2013,07,16,09,54,25.50
2013,07,16,09,55,25.50
2013,07,16,09,56,25.60
2013,07,16,09,57,25.60
2013,07,16,09,58,25.60
2013,07,16,09,59,25.70
2013,07,16,10,00,25.70
2013,07,16,10,01,25.70
2013,07,16,10,02,25.70
2013,07,16,10,03,25.80
2013,07,16,10,04,25.80
2013,07,16,10,05,25.80
2013,07,16,10,06,25.90
2013,07,16,10,07,25.90
2013,07,16,10,08,25.90
2013,07,16,10,09,25.90
2013,07,16,10,10,26.00
2013,07,16,10,11,26.00
2013,07,16,10,12,26.10
2013,07,16,10,13,26.10
2013,07,16,10,14,26.10
2013,07,16,10,15,26.20
2013,07,16,10,16,26.20
2013,07,16,10,17,26.30
2013,07,16,10,18,26.30
2013,07,16,10,19,26.40
2013,07,16,10,20,26.40
2013,07,16,10,21,26.50
2013,07,16,10,22,26.60
2013,07,16,10,23,26.70
2013,07,16,10,24,26.70
2013,07,16,10,25,26.80
2013,07,16,10,26,26.90
2013,07,16,10,27,26.90
2013,07,16,10,28,26.80
2013,07,16,10,29,26.80
2013,07,16,10,30,26.80
2013,07,16,10,31,26.90
2013,07,16,10,32,26.90
2013,07,16,10,33,27.00
2013,07,16,10,34,27.10
2013,07,16,10,35,27.20
2013,07,16,10,36,27.30
2013,07,16,10,37,27.30
2013,07,16,10,38,27.30
2013,07,16,10,39,27.40
2013,07,16,10,40,27.40
2013,07,16,10,41,27.40
2013,07,16,10,42,27.50
2013,07,16,10,43,27.50
2013,07,16,10,44,27.60
2013,07,16,10,45,27.70
2013,07,16,10,46,27.80
2013,07,16,10,47,27.80
2013,07,16,10,48,27.80
2013,07,16,10,49,27.70
2013,07,16,10,50,27.70
2013,07,16,10,51,27.50
2013,07,16,10,52,27.50
2013,07,16,10,53,27.40
2013,07,16,10,54,27.30
2013,07,16,10,55,27.20
2013,07,16,10,56,27.10
2013,07,16,10,57,27.10
2013,07,16,10,58,27.10
2013,07,16,10,59,27.20
2013,07,16,11,00,27.20
2013,07,16,11,01,27.30
2013,07,16,11,02,27.30
2013,07,16,11,03,27.30
2013,07,16,11,04,27.20
2013,07,16,11,05,27.20
2013,07,16,11,06,27.20
2013,07,16,11,07,27.20
2013,07,16,11,08,27.20
2013,07,16,11,09,27.20
2013,07,16,11,10,27.30
2013,07,16,11,11,27.30
2013,07,16,11,12,27.40
2013,07,16,11,13,27.50
2013,07,16,11,14,27.60
2013,07,16,11,15,27.70
2013,07,16,11,16,27.80
2013,07,16,11,17,27.90
2013,07,16,11,18,27.90
2013,07,16,11,19,27.90
2013,07,16,11,20,28.00
2013,07,16,11,21,28.00
2013,07,16,11,22,28.00
2013,07,16,11,23,28.10
2013,07,16,11,24,28.10
2013,07,16,11,25,28.10
2013,07,16,11,26,28.10
2013,07,16,11,27,28.00
2013,07,16,11,28,27.90
2013,07,16,11,29,27.80
2013,07,16,11,30,27.80
2013,07,16,11,31,27.80
2013,07,16,11,32,27.80
2013,07,16,11,33,27.80
2013,07,16,11,34,27.80
2013,07,16,11,35,27.80
2013,07,16,11,36,27.90
2013,07,16,11,37,28.00
2013,07,16,11,38,28.10
2013,07,16,11,39,28.30
2013,07,16,11,40,28.40
2013,07,16,11,41,28.50
2013,07,16,11,42,28.60
2013,07,16,11,43,28.70
2013,07,16,11,44,28.80
2013,07,16,11,45,28.90
2013,07,16,11,46,29.00
2013,07,16,11,47,29.00
2013,07,16,11,48,29.10
2013,07,16,11,49,29.10
2013,07,16,11,50,29.10
2013,07,16,11,51,29.00
2013,07,16,11,52,28.80
2013,07,16,11,53,28.70
2013,07,16,11,54,28.50
2013,07,16,11,55,28.40
2013,07,16,11,56,28.30
2013,07,16,11,57,28.30
2013,07,16,11,58,28.20
2013,07,16,11,59,28.20
2013,07,16,12,00,28.20
2013,07,16,12,01,28.20
2013,07,16,12,02,28.20
2013,07,16,12,03,28.20
2013,07,16,12,04,28.20
2013,07,16,12,05,28.10
2013,07,16,12,06,28.20
2013,07,16,12,07,28.20
2013,07,16,12,08,28.20
2013,07,16,12,09,28.20
2013,07,16,12,10,28.20
2013,07,16,12,11,28.20
2013,07,16,12,12,28.10
2013,07,16,12,13,28.00
2013,07,16,12,14,28.00
2013,07,16,12,15,27.90
2013,07,16,12,16,27.90
2013,07,16,12,17,27.90
2013,07,16,12,18,27.90
2013,07,16,12,19,27.90
2013,07,16,12,20,27.90
2013,07,16,12,21,27.80
2013,07,16,12,22,27.80
2013,07,16,12,23,27.80
2013,07,16,12,24,27.80
2013,07,16,12,25,27.80
2013,07,16,12,26,27.80
2013,07,16,12,27,27.90
2013,07,16,12,28,28.00
2013,07,16,12,29,28.10
2013,07,16,12,30,28.20
2013,07,16,12,31,28.30
2013,07,16,12,32,28.50
2013,07,16,12,33,28.60
2013,07,16,12,34,28.70
2013,07,16,12,35,28.70
2013,07,16,12,36,28.70
2013,07,16,12,37,28.70
2013,07,16,12,38,28.70
2013,07,16,12,39,28.70
2013,07,16,12,40,28.70
2013,07,16,12,41,28.70
2013,07,16,12,42,28.70
2013,07,16,12,43,28.70
2013,07,16,12,44,28.70
2013,07,16,12,45,28.70
2013,07,16,12,46,28.70
2013,07,16,12,47,28.70
2013,07,16,12,48,28.70
2013,07,16,12,49,28.70
2013,07,16,12,50,28.70
2013,07,16,12,51,28.70
2013,07,16,12,52,28.70
2013,07,16,12,53,28.70
2013,07,16,12,54,28.80
2013,07,16,12,55,28.90
2013,07,16,12,56,29.10
2013,07,16,12,57,29.20
2013,07,16,12,58,29.30
2013,07,16,12,59,29.40
2013,07,16,13,00,29.40
2013,07,16,13,01,29.30
2013,07,16,13,02,29.30
2013,07,16,13,03,29.20
2013,07,16,13,04,29.20
2013,07,16,13,05,29.20
2013,07,16,13,06,29.20
2013,07,16,13,07,29.20
2013,07,16,13,08,29.30
2013,07,16,13,09,29.30
2013,07,16,13,10,29.30
2013,07,16,13,11,29.30
2013,07,16,13,12,29.30
2013,07,16,13,13,29.30
2013,07,16,13,14,29.30
2013,07,16,13,15,29.20
2013,07,16,13,16,29.20
2013,07,16,13,17,29.30
2013,07,16,13,18,29.30
2013,07,16,13,19,29.40
2013,07,16,13,20,29.30
2013,07,16,13,21,29.20
2013,07,16,13,22,29.10
2013,07,16,13,23,29.00
2013,07,16,13,24,29.00
2013,07,16,13,25,29.00
2013,07,16,13,26,29.10
2013,07,16,13,27,29.20
2013,07,16,13,28,29.30
2013,07,16,13,29,29.40
2013,07,16,13,30,29.40
2013,07,16,13,31,29.50
2013,07,16,13,32,29.50
2013,07,16,13,33,29.50
2013,07,16,13,34,29.50
2013,07,16,13,35,29.50
2013,07,16,13,36,29.50
2013,07,16,13,37,29.50
2013,07,16,13,38,29.40
2013,07,16,13,39,29.40
2013,07,16,13,40,29.40
2013,07,16,13,41,29.40
2013,07,16,13,42,29.50
2013,07,16,13,43,29.50
2013,07,16,13,44,29.60
2013,07,16,13,45,29.60
2013,07,16,13,46,29.60
2013,07,16,13,47,29.60
2013,07,16,13,48,29.60
2013,07,16,13,49,29.60
2013,07,16,13,50,29.60
2013,07,16,13,51,29.50
2013,07,16,13,52,29.40
2013,07,16,13,53,29.30
2013,07,16,13,54,29.30
2013,07,16,13,55,29.30
2013,07,16,13,56,29.40
2013,07,16,13,57,29.40
2013,07,16,13,58,29.40
2013,07,16,13,59,29.30
2013,07,16,14,00,29.20
2013,07,16,14,01,29.20
2013,07,16,14,02,29.20
2013,07,16,14,03,29.30
2013,07,16,14,04,29.40
2013,07,16,14,05,29.50
2013,07,16,14,06,29.40
2013,07,16,14,07,29.40
2013,07,16,14,08,29.40
2013,07,16,14,09,29.40
2013,07,16,14,10,29.40
2013,07,16,14,11,29.40
2013,07,16,14,12,29.50
2013,07,16,14,13,29.60
2013,07,16,14,14,29.60
2013,07,16,14,15,29.50
2013,07,16,14,16,29.50
2013,07,16,14,17,29.50
2013,07,16,14,18,29.40
2013,07,16,14,19,29.40
2013,07,16,14,20,29.30
2013,07,16,14,21,29.30
2013,07,16,14,22,29.20
2013,07,16,14,23,29.20
2013,07,16,14,24,29.10
2013,07,16,14,25,29.10
2013,07,16,14,26,29.00
2013,07,16,14,27,28.90
2013,07,16,14,28,28.80
2013,07,16,14,29,28.80
2013,07,16,14,30,28.80
2013,07,16,14,31,28.80
2013,07,16,14,32,28.80
2013,07,16,14,33,28.80
2013,07,16,14,34,28.80
2013,07,16,14,35,28.80
2013,07,16,14,36,28.80
2013,07,16,14,37,28.80
2013,07,16,14,38,28.80
2013,07,16,14,39,28.70
2013,07,16,14,40,28.60
2013,07,16,14,41,28.60
2013,07,16,14,42,28.60
2013,07,16,14,43,28.60
2013,07,16,14,44,28.60
2013,07,16,14,45,28.70
2013,07,16,14,46,28.70
2013,07,16,14,47,28.70
2013,07,16,14,48,28.70
2013,07,16,14,49,28.70
2013,07,16,14,50,28.70
2013,07,16,14,51,28.70
2013,07,16,14,52,28.70
2013,07,16,14,53,28.60
2013,07,16,14,54,28.50
2013,07,16,14,55,28.50
2013,07,16,14,56,28.40
2013,07,16,14,57,28.40
2013,07,16,14,58,28.40
2013,07,16,14,59,28.40
2013,07,16,15,00,28.40
2013,07,16,15,01,28.40
2013,07,16,15,02,28.40
2013,07,16,15,03,28.40
2013,07,16,15,04,28.40
2013,07,16,15,05,28.40
2013,07,16,15,06,28.40
2013,07,16,15,07,28.50
2013,07,16,15,08,28.50
2013,07,16,15,09,28.60
2013,07,16,15,10,28.60
2013,07,16,15,11,28.60
2013,07,16,15,12,28.60
2013,07,16,15,13,28.60
2013,07,16,15,14,28.60
2013,07,16,15,15,28.60
2013,07,16,15,16,28.70
2013,07,16,15,17,28.70
2013,07,16,15,18,28.80
2013,07,16,15,19,28.80
2013,07,16,15,20,28.90
2013,07,16,15,21,28.90
2013,07,16,15,22,28.90
2013,07,16,15,23,29.00
2013,07,16,15,24,29.00
2013,07,16,15,25,29.00
2013,07,16,15,26,29.00
2013,07,16,15,27,29.10
2013,07,16,15,28,29.10
2013,07,16,15,29,29.10
2013,07,16,15,30,29.10
2013,07,16,15,31,29.20
2013,07,16,15,32,29.20
2013,07,16,15,33,29.20
2013,07,16,15,34,29.20
2013,07,16,15,35,29.10
2013,07,16,15,36,29.10
2013,07,16,15,37,29.00
2013,07,16,15,38,28.90
2013,07,16,15,39,28.90
2013,07,16,15,40,28.90
2013,07,16,15,41,28.80
2013,07,16,15,42,28.80
2013,07,16,15,43,28.70
2013,07,16,15,44,28.60
2013,07,16,15,45,28.50
2013,07,16,15,46,28.40
2013,07,16,15,47,28.30
2013,07,16,15,48,28.20
2013,07,16,15,49,28.20
2013,07,16,15,50,28.10
2013,07,16,15,51,28.10
2013,07,16,15,52,28.00
2013,07,16,15,53,28.00
2013,07,16,15,54,27.90
2013,07,16,15,55,27.80
2013,07,16,15,56,27.70
2013,07,16,15,57,27.70
2013,07,16,15,58,27.60
2013,07,16,15,59,27.60
2013,07,16,16,00,27.60
2013,07,16,16,01,27.60
2013,07,16,16,02,27.60
2013,07,16,16,03,27.60
2013,07,16,16,04,27.60
2013,07,16,16,05,27.60
2013,07,16,16,06,27.60
2013,07,16,16,07,27.60
2013,07,16,16,08,27.60
2013,07,16,16,09,27.60
2013,07,16,16,10,27.60
2013,07,16,16,11,27.60
2013,07,16,16,12,27.60
2013,07,16,16,13,27.60
2013,07,16,16,14,27.50
2013,07,16,16,15,27.50
2013,07,16,16,16,27.40
2013,07,16,16,17,27.40
2013,07,16,16,18,27.40
2013,07,16,16,19,27.40
2013,07,16,16,20,27.30
2013,07,16,16,21,27.30
2013,07,16,16,22,27.20
2013,07,16,16,23,27.20
2013,07,16,16,24,27.20
2013,07,16,16,25,27.20
2013,07,16,16,26,27.20
2013,07,16,16,27,27.20
2013,07,16,16,28,27.20
2013,07,16,16,29,27.20
2013,07,16,16,30,27.20
2013,07,16,16,31,27.20
2013,07,16,16,32,27.20
2013,07,16,16,33,27.20
2013,07,16,16,34,27.20
2013,07,16,16,35,27.20
2013,07,16,16,36,27.20
2013,07,16,16,37,27.20
2013,07,16,16,38,27.20
2013,07,16,16,39,27.20
2013,07,16,16,40,27.20
2013,07,16,16,41,27.30
2013,07,16,16,42,27.30
2013,07,16,16,43,27.30
2013,07,16,16,44,27.40
2013,07,16,16,45,27.40
2013,07,16,16,46,27.40
2013,07,16,16,47,27.40
2013,07,16,16,48,27.40
2013,07,16,16,49,27.40
2013,07,16,16,50,27.40
2013,07,16,16,51,27.50
2013,07,16,16,52,27.50
2013,07,16,16,53,27.50
2013,07,16,16,54,27.50
2013,07,16,16,55,27.50
2013,07,16,16,56,27.40
2013,07,16,16,57,27.40
2013,07,16,16,58,27.40
2013,07,16,16,59,27.40
2013,07,16,17,00,27.40
2013,07,16,17,01,27.40
2013,07,16,17,02,27.40
2013,07,16,17,03,27.30
2013,07,16,17,04,27.30
2013,07,16,17,05,27.30
2013,07,16,17,06,27.30
2013,07,16,17,07,27.30
2013,07,16,17,08,27.20
2013,07,16,17,09,27.20
2013,07,16,17,10,27.10
2013,07,16,17,11,27.10
2013,07,16,17,12,27.10
2013,07,16,17,13,27.00
2013,07,16,17,14,26.90
2013,07,16,17,15,26.90
2013,07,16,17,16,26.80
2013,07,16,17,17,26.80
2013,07,16,17,18,26.70
2013,07,16,17,19,26.70